Date String (YYYY-MM-DD hh:mm:ss) UTC,Instrument flags,absolute air pressure of the measurement (hPa),sample flow rate (lpm),inlet stack bypass flow (lpm),air temperature of the measurement (°C),ambient temperature measured by the external sensor (°C),aerosol sample conditioner tube jacket temperature (°C),OPC LED temperature (°C),internal box temperature (°C),relative humidity of the measurement (%),span deviation,mass concentration of particles derived from Lorenz-Mie calculation of OPC scattering (μg/m³),mass concentration of particles derived from Lorenz-Mie calculation of OPC scattering (μg/m³),mass concentration of particles derived from Lorenz-Mie calculation of OPC scattering (μg/m³)
DateTimeUTC,F1_M11,P_M11,Q1_M11,Q2_M11,T1_M11,T2_M11,T3_M11,T4_M11,T5_M11,U1_M11,ZSPAN_M11,X2_M11,X0_M11,X1_M11
2023-12-28 23:00:00,SystemResetWarning,0833.8,4.99,000.00,024.3,023.4,000.0,032.5,025.5,6.7,0000.0,0001.25,0007.48,0000.85
2023-12-28 23:01:00,SystemResetWarning,0833.8,4.99,000.00,024.3,023.4,000.0,032.5,025.5,6.7,0000.0,0001.28,0007.55,0000.87
2023-12-28 23:02:00,SystemResetWarning,0833.8,5.00,000.00,024.3,023.4,000.0,032.5,025.5,6.7,0000.0,0001.30,0007.41,0000.89
2023-12-28 23:03:00,SystemResetWarning,0833.8,5.02,000.00,024.3,023.5,000.0,032.5,025.5,6.7,0000.0,0001.35,0007.44,0000.90
2023-12-28 23:04:00,SystemResetWarning,0833.8,5.00,000.00,024.3,023.5,000.0,032.5,025.5,6.7,0000.0,0001.39,0007.45,0000.91
2023-12-28 23:05:00,SystemResetWarning,0833.9,4.99,000.00,024.3,023.5,000.0,032.5,025.5,6.7,0000.0,0001.41,0006.81,0000.92
2023-12-28 23:06:00,SystemResetWarning,0833.8,5.00,000.00,024.3,023.4,000.0,032.5,025.5,6.8,0000.0,0001.43,0004.67,0000.94
2023-12-28 23:07:00,SystemResetWarning,0833.8,5.00,000.00,024.3,023.5,000.0,032.5,025.5,6.7,0000.0,0001.43,0004.23,0000.99
2023-12-28 23:08:00,SystemResetWarning,0833.9,5.00,000.00,024.3,023.5,000.0,032.5,025.5,6.7,0000.0,0001.51,0004.02,0001.04
2023-12-28 23:09:00,SystemResetWarning,0833.9,5.00,000.00,024.3,023.5,000.0,032.5,025.5,6.7,0000.0,0001.54,0004.09,0001.07
2023-12-28 23:10:00,SystemResetWarning,0833.8,5.00,000.00,024.3,023.5,000.0,032.5,025.5,6.7,0000.0,0001.59,0004.04,0001.11
2023-12-28 23:11:00,SystemResetWarning,0833.9,5.01,000.00,024.3,023.5,000.0,032.5,025.5,6.7,0000.0,0001.64,0003.26,0001.16
2023-12-28 23:12:00,SystemResetWarning,0833.9,5.01,000.00,024.3,023.5,000.0,032.5,025.5,6.7,0000.0,0001.70,0003.09,0001.21
2023-12-28 23:13:00,SystemResetWarning,0833.9,5.00,000.00,024.3,023.5,000.0,032.5,025.5,6.7,0000.0,0001.76,0003.59,0001.26
2023-12-28 23:14:00,SystemResetWarning,0833.9,4.99,000.00,024.3,023.5,000.0,032.5,025.5,6.7,0000.0,0001.81,0004.34,0001.31
2023-12-28 23:15:00,SystemResetWarning,0833.9,5.00,000.00,024.3,023.5,000.0,032.5,025.5,6.7,0000.0,0001.83,0004.82,0001.36
2023-12-28 23:16:00,SystemResetWarning,0834.0,5.00,000.00,024.3,023.5,000.0,032.6,025.5,6.7,0000.0,0001.89,0004.99,0001.40
2023-12-28 23:17:00,SystemResetWarning,0833.9,5.01,000.00,024.3,023.5,000.0,032.6,025.5,6.7,0000.0,0001.90,0005.09,0001.41
2023-12-28 23:18:00,SystemResetWarning,0834.0,5.01,000.00,024.3,023.5,000.0,032.6,025.5,6.7,0000.0,0001.94,0006.33,0001.41
2023-12-28 23:19:00,SystemResetWarning,0834.0,5.00,000.00,024.3,023.5,000.0,032.6,025.5,6.7,0000.0,0001.97,0007.30,0001.41
2023-12-28 23:20:00,SystemResetWarning,0834.0,4.99,000.00,024.4,023.5,000.0,032.6,025.6,6.7,0000.0,0002.04,0007.95,0001.42
2023-12-28 23:21:00,SystemResetWarning,0834.0,5.00,000.00,024.4,023.6,000.0,032.6,025.6,6.7,0000.0,0002.03,0008.00,0001.41
2023-12-28 23:22:00,SystemResetWarning,0833.9,4.99,000.00,024.4,023.6,000.0,032.6,025.6,6.7,0000.0,0002.04,0008.17,0001.40
2023-12-28 23:23:00,SystemResetWarning,0833.9,5.00,000.00,024.4,023.6,000.0,032.6,025.7,6.6,0000.0,0002.09,0009.00,0001.39
2023-12-28 23:24:00,SystemResetWarning,0834.0,5.01,000.00,024.4,023.7,000.0,032.6,025.7,6.5,0000.0,0002.16,0009.44,0001.37
2023-12-28 23:25:00,SystemResetWarning,0834.0,5.01,000.00,024.4,023.7,000.0,032.6,025.6,6.5,0000.0,0002.14,0010.90,0001.35
2023-12-28 23:26:00,SystemResetWarning,0834.0,5.00,000.00,024.4,023.7,000.0,032.6,025.6,6.5,0000.0,0002.12,0010.70,0001.34
2023-12-28 23:27:00,SystemResetWarning,0834.0,4.99,000.00,024.4,023.7,000.0,032.6,025.6,6.5,0000.0,0002.06,0011.10,0001.33
2023-12-28 23:28:00,SystemResetWarning,0834.0,4.99,000.00,024.5,023.7,000.0,032.6,025.7,6.5,0000.0,0002.06,0011.58,0001.32
2023-12-28 23:29:00,SystemResetWarning,0834.0,5.01,000.00,024.5,023.7,000.0,032.6,025.7,6.5,0000.0,0002.04,0011.02,0001.31
2023-12-28 23:30:00,SystemResetWarning,0834.1,4.99,000.00,024.5,023.7,000.0,032.6,025.7,6.5,0000.0,0002.01,0010.46,0001.31
2023-12-28 23:31:00,SystemResetWarning,0834.1,5.01,000.00,024.5,023.7,000.0,032.7,025.7,6.5,0000.0,0001.98,0009.91,0001.31
2023-12-28 23:32:00,SystemResetWarning,0834.1,5.01,000.00,024.5,023.7,000.0,032.7,025.7,6.5,0000.0,0002.00,0009.91,0001.32
2023-12-28 23:33:00,SystemResetWarning,0834.1,5.01,000.00,024.5,023.7,000.0,032.7,025.7,6.5,0000.0,0002.00,0009.82,0001.31
2023-12-28 23:34:00,SystemResetWarning,0834.0,4.99,000.00,024.5,023.8,000.0,032.7,025.7,6.5,0000.0,0001.97,0009.01,0001.29
2023-12-28 23:35:00,SystemResetWarning,0834.1,4.99,000.00,024.5,023.8,000.0,032.7,025.8,6.5,0000.0,0001.88,0008.42,0001.27
2023-12-28 23:36:00,SystemResetWarning,0834.1,4.99,000.00,024.5,023.8,000.0,032.7,025.9,6.5,0000.0,0001.86,0007.19,0001.26
2023-12-28 23:37:00,SystemResetWarning,0834.1,5.00,000.00,024.6,023.8,000.0,032.7,025.9,6.5,0000.0,0001.89,0007.11,0001.25
2023-12-28 23:38:00,SystemResetWarning,0834.1,5.01,000.00,024.6,023.9,000.0,032.7,025.9,6.5,0000.0,0001.92,0006.49,0001.25
2023-12-28 23:39:00,SystemResetWarning,0834.1,5.01,000.00,024.6,023.9,000.0,032.7,025.9,6.4,0000.0,0001.96,0005.64,0001.25
2023-12-28 23:40:00,SystemResetWarning,0834.1,5.00,000.00,024.6,023.9,000.0,032.7,025.9,6.4,0000.0,0001.97,0005.57,0001.25
2023-12-28 23:41:00,SystemResetWarning,0834.1,4.98,000.00,024.6,023.9,000.0,032.8,025.9,6.4,0000.0,0001.94,0005.48,0001.25
2023-12-28 23:42:00,SystemResetWarning,0834.1,5.00,000.00,024.6,023.9,000.0,032.8,025.9,6.4,0000.0,0001.93,0006.95,0001.24
2023-12-28 23:43:00,SystemResetWarning,0834.1,5.00,000.00,024.6,023.9,000.0,032.8,025.9,6.4,0000.0,0001.95,0006.96,0001.23
2023-12-28 23:44:00,SystemResetWarning,0834.1,5.01,000.00,024.6,023.9,000.0,032.8,025.9,6.4,0000.0,0001.93,0007.18,0001.22
2023-12-28 23:45:00,SystemResetWarning,0834.1,5.01,000.00,024.6,023.9,000.0,032.8,025.9,6.4,0000.0,0001.92,0007.53,0001.24
2023-12-28 23:46:00,SystemResetWarning,0834.1,4.99,000.00,024.6,023.9,000.0,032.8,025.9,6.4,0000.0,0001.95,0008.19,0001.24
2023-12-28 23:47:00,SystemResetWarning,0834.1,4.99,000.00,024.6,023.8,000.0,032.8,025.9,6.3,0000.0,0001.97,0007.79,0001.24
2023-12-28 23:48:00,SystemResetWarning,0834.1,4.99,000.00,024.6,023.8,000.0,032.8,025.9,6.3,0000.0,0001.95,0007.63,0001.24
2023-12-28 23:49:00,SystemResetWarning,0834.1,5.01,000.00,024.6,023.9,000.0,032.8,025.9,6.3,0000.0,0001.91,0007.47,0001.23
2023-12-28 23:50:00,SystemResetWarning,0834.1,5.01,000.00,024.6,023.9,000.0,032.8,025.9,6.3,0000.0,0001.85,0007.41,0001.22
2023-12-28 23:51:00,SystemResetWarning,0834.1,5.00,000.00,024.7,023.9,000.0,032.8,025.9,6.3,0000.0,0001.81,0007.66,0001.21
2023-12-28 23:52:00,SystemResetWarning,0834.2,5.00,000.00,024.7,023.9,000.0,032.9,025.9,6.3,0000.0,0001.82,0007.83,0001.21
2023-12-28 23:53:00,SystemResetWarning,0834.2,5.00,000.00,024.7,023.9,000.0,032.9,025.9,6.3,0000.0,0001.82,0007.86,0001.20
2023-12-28 23:54:00,SystemResetWarning,0834.1,5.00,000.00,024.7,023.9,000.0,032.9,025.9,6.3,0000.0,0001.85,0008.26,0001.18
2023-12-28 23:55:00,SystemResetWarning,0834.2,5.00,000.00,024.7,023.8,000.0,032.9,025.9,6.3,0000.0,0001.90,0008.38,0001.17
2023-12-28 23:56:00,SystemResetWarning,0834.2,4.99,000.00,024.7,023.8,000.0,032.9,026.0,6.3,0000.0,0001.89,0008.13,0001.15
2023-12-28 23:57:00,SystemResetWarning,0834.2,4.99,000.00,024.7,023.8,000.0,032.9,025.9,6.3,0000.0,0001.87,0007.58,0001.15
2023-12-28 23:58:00,SystemResetWarning,0834.2,4.99,000.00,024.7,023.8,000.0,032.9,025.9,6.3,0000.0,0001.87,0007.21,0001.15
2023-12-28 23:59:00,SystemResetWarning,0834.2,5.00,000.00,024.7,023.8,000.0,032.9,025.9,6.3,0000.0,0001.89,0007.34,0001.14
